[[{"header":{"parameterUnit":"m.s-1","parameterCategory":1,"la1":30.2991,"la2":30.254,"lo1":-89.0895,"lo2":-89.0444,"dy":0.0017,"dx":0.0017,"nx":28,"ny":28,"refTime":"2025-09-15T21:00:00:Z","depth":0,"parameterNumber":2,"parameterNumberName":"U-component_of_WINDS"},"data":[0,0,0,0,0,0,0,0,0,0,0,0,0,0,0,0,0,0,0,0,0,0,0,0,0,0,0,0,0,0,0,0,0,0,0,0,0,0,0,0,0,0,0,0,0,0,0,0,0,0,0,0,0,0,0,0,0,0,1.1573,1.1572,0,1.1474,1.1473,1.1471,1.1414,1.1414,1.1414,1.1414,1.1308,1.1306,1.1303,0,0,0,0,0,0,0,0,0,0,0,0,0,1.1712,1.1709,1.1573,1.1572,1.1571,1.1474,1.1473,1.1471,1.1414,1.1414,1.1414,1.1414,1.1309,1.1306,1.1303,0,0,0,0,0,0,0,0,0,0,0,0,0,1.1636,1.1709,1.1573,1.1531,1.1526,1.1474,1.1473,1.1471,1.1414,1.1414,1.1414,1.1414,1.131,1.1306,1.1302,1.1284,0,0,1.129,1.1289,0,0,0,0,0,0,0,0,1.164,1.1631,1.1538,1.1534,1.1528,1.1456,1.1483,1.1408,1.1414,1.1457,1.1414,1.1413,1.1357,1.135,1.1332,1.1279,1.1275,1.129,1.1288,1.1286,1.1285,0,0,0,0,0,0,0,1.1645,1.1635,1.1534,1.1537,1.1531,1.1516,1.1505,1.1468,1.141,1.1453,1.1449,1.1438,1.1355,1.1335,1.1329,1.1273,1.129,1.1287,1.1284,1.1283,1.1202,1.1202,0,0,0,0,0,0,1.1658,1.1639,1.1537,1.1531,1.1585,1.1514,1.1501,1.148,1.141,1.1399,1.1438,1.1436,1.1342,1.1333,1.1325,1.1299,1.1286,1.1282,1.128,1.1202,1.1202,1.1202,0,0,0,0,0,0,1.1661,1.1649,1.1541,1.1584,1.1569,1.1512,1.1488,1.1478,1.1459,1.1399,1.1388,1.143,1.1342,1.133,1.1295,1.1295,1.1281,1.1277,1.1201,1.1202,1.1202,1.1248,0,0,0,0,0,0,1.1665,1.1651,1.1644,1.1584,1.1567,1.1514,1.1488,1.1476,1.1452,1.1448,1.1388,1.1378,1.1341,1.1301,1.1291,1.1289,1.1274,1.1201,1.1202,1.1202,1.1247,1.125,1.1253,0,0,0,0,0,1.167,1.166,1.1644,1.1632,1.1557,1.1514,1.1504,1.1463,1.1453,1.1445,1.1407,1.138,1.1297,1.1298,1.1286,1.1283,1.1201,1.1201,1.1202,1.1245,1.125,1.1253,0,0,0,0,0,0,1.1719,1.1651,1.1632,1.1602,1.1565,1.1505,1.1493,1.1469,1.1432,1.1429,1.1378,1.1365,1.1335,1.1305,1.1308,1.1262,1.1246,1.1244,1.1283,1.1287,1.129,1.1298,1.1271,0,0,0,0,0,1.1727,1.1698,1.164,1.1619,1.1601,1.1551,1.153,1.1502,1.146,1.1444,1.1403,1.1363,1.1328,1.1305,1.127,1.1242,1.1228,1.1234,1.1238,1.1241,1.124,1.1224,1.1226,1.1204,1.1204,1.1204,0,0,1.1741,1.1701,1.1685,1.1628,1.1595,1.1567,1.1538,1.1508,1.1486,1.1439,1.1404,1.1373,1.1324,1.1293,1.1278,1.1268,1.1243,1.1241,1.1244,1.1241,1.1224,1.1226,1.1228,1.1204,1.1204,1.1204,0,0,1.1753,1.172,1.1699,1.1668,1.1619,1.1586,1.1581,1.1525,1.1503,1.1468,1.1432,1.1405,1.1345,1.1313,1.1288,1.129,1.1264,1.128,1.1297,1.1282,1.1284,1.1285,1.1286,1.1287,1.1279,1.1279,1.1279,0,1.1777,1.1733,1.1691,1.1664,1.164,1.1598,1.1577,1.1548,1.149,1.1474,1.1464,1.1389,1.1354,1.1315,1.1316,1.1297,1.129,1.1286,1.1287,1.1288,1.1289,1.1289,1.1289,1.1281,1.1281,1.1281,1.128,0,1.1765,1.1736,1.1725,1.1672,1.1646,1.1622,1.1576,1.1555,1.153,1.1498,1.1462,1.1418,1.1373,1.1362,1.1336,1.132,1.1315,1.1297,1.1279,1.1294,1.1293,1.1293,1.1284,1.1284,1.1283,1.1282,0,0,1.1804,1.173,1.1726,1.1702,1.1647,1.1622,1.1597,1.1555,1.1538,1.15,1.1476,1.1428,1.1411,1.1384,1.1354,1.1341,1.1346,1.1324,1.1322,1.133,1.1326,1.134,1.1341,1.1328,1.1328,1.1328,1.133,0,1.1808,1.1761,1.1723,1.169,1.1662,1.1622,1.16,1.1563,1.1533,1.1504,1.147,1.1437,1.1417,1.14,1.1386,1.1348,1.1344,1.1347,1.1306,1.1305,1.1319,1.134,1.1355,1.1359,1.1329,1.1329,1.1329,0,1.1806,1.1772,1.1736,1.1685,1.1672,1.1652,1.1611,1.1585,1.1542,1.1521,1.1492,1.1461,1.1431,1.1417,1.1376,1.1379,1.136,1.1339,1.1338,1.1332,1.1318,1.1335,1.1359,1.136,1.1328,1.1328,1.1328,0,1.1839,1.1783,1.1755,1.1735,1.1675,1.1662,1.1636,1.1593,1.1571,1.1535,1.1519,1.148,1.1458,1.1428,1.1387,1.1381,1.135,1.1332,1.1331,1.1332,1.1326,1.1327,1.1347,1.1314,1.1314,1.1314,1.1314,0,1.1847,1.1827,1.1769,1.1752,1.1728,1.1685,1.1662,1.1632,1.1595,1.1571,1.1534,1.1512,1.1459,1.1431,1.1399,1.137,1.136,1.1341,1.1333,1.1345,1.1347,1.1331,1.133,1.1314,1.1314,1.1314,1.1314,0,1.1879,1.1839,1.1806,1.1752,1.1738,1.1723,1.1676,1.1658,1.1626,1.1596,1.1586,1.1536,1.1501,1.1457,1.1407,1.1386,1.136,1.1347,1.1375,1.137,1.1371,1.1372,1.1382,1.1381,1.1349,1.1349,1.135,0,1.1887,1.1871,1.1816,1.1798,1.1774,1.1745,1.1722,1.1679,1.1657,1.1608,1.1596,1.1558,1.1525,1.1471,1.1429,1.1391,1.1377,1.1383,1.1371,1.1383,1.1377,1.1379,1.1377,1.1386,1.1387,1.1387,1.1387,0,1.1906,1.1887,1.1857,1.182,1.1795,1.1763,1.173,1.1717,1.1667,1.1644,1.1608,1.1583,1.1534,1.1496,1.1453,1.1425,1.1398,1.1392,1.139,1.1401,1.1418,1.141,1.1384,1.1392,1.1391,1.1391,1.1391,1.1391,1.1926,1.191,1.187,1.1837,1.1808,1.1779,1.1759,1.1726,1.1696,1.1653,1.1629,1.1594,1.1553,1.1492,1.1466,1.1437,1.1427,1.1424,1.1423,1.1423,1.1427,1.1423,1.1429,1.1429,1.1429,1.1428,1.1428,0,1.1943,1.1915,1.1886,1.1842,1.1817,1.1795,1.1758,1.1738,1.1708,1.1672,1.1642,1.1601,1.1565,1.1522,1.1483,1.1469,1.1455,1.146,1.146,1.1454,1.1437,1.1444,1.1471,1.1471,1.1471,1.1471,1.1471,1.1471,1.1949,1.1922,1.1899,1.1857,1.1829,1.1796,1.1777,1.1749,1.172,1.1678,1.1648,1.1621,1.1582,1.154,1.1506,1.1494,1.1481,1.149,1.1474,1.1459,1.1455,1.1452,1.1457,1.1488,1.1488,1.1493,1.1494,1.1494]},{"header":{"parameterUnit":"m.s-1","parameterCategory":1,"la1":30.2991,"la2":30.254,"lo1":-89.0895,"lo2":-89.0444,"dy":0.0017,"dx":0.0017,"nx":28,"ny":28,"refTime":"2025-09-15T21:00:00:Z","depth":0,"parameterNumber":3,"parameterNumberName":"V-component_of_WINDS"},"data":[0,0,0,0,0,0,0,0,0,0,0,0,0,0,0,0,0,0,0,0,0,0,0,0,0,0,0,0,0,0,0,0,0,0,0,0,0,0,0,0,0,0,0,0,0,0,0,0,0,0,0,0,0,0,0,0,0,0,-1.4273,-1.4273,0,-1.4271,-1.4271,-1.4271,-1.424,-1.424,-1.4239,-1.4238,-1.4234,-1.4234,-1.4235,0,0,0,0,0,0,0,0,0,0,0,0,0,-1.4251,-1.4252,-1.4273,-1.4273,-1.4273,-1.4271,-1.4271,-1.4271,-1.4241,-1.424,-1.4239,-1.4238,-1.4233,-1.4234,-1.4235,0,0,0,0,0,0,0,0,0,0,0,0,0,-1.4256,-1.4252,-1.4273,-1.4258,-1.4257,-1.4271,-1.4271,-1.4271,-1.4241,-1.424,-1.4238,-1.4237,-1.4233,-1.4234,-1.4235,-1.4263,0,0,-1.4238,-1.4238,0,0,0,0,0,0,0,0,-1.4256,-1.4257,-1.426,-1.4259,-1.4257,-1.4255,-1.4262,-1.4268,-1.4241,-1.4247,-1.4238,-1.4237,-1.4242,-1.4242,-1.4244,-1.4263,-1.4263,-1.4238,-1.4238,-1.4239,-1.4239,0,0,0,0,0,0,0,-1.4256,-1.4257,-1.4272,-1.426,-1.4259,-1.4251,-1.425,-1.4263,-1.425,-1.4246,-1.4244,-1.4244,-1.4241,-1.4243,-1.4243,-1.4263,-1.4238,-1.4239,-1.4239,-1.4239,-1.4309,-1.431,0,0,0,0,0,0,-1.4258,-1.4257,-1.4272,-1.4272,-1.4254,-1.4252,-1.4252,-1.4257,-1.425,-1.4248,-1.4245,-1.4243,-1.4242,-1.4242,-1.4243,-1.4278,-1.4239,-1.424,-1.424,-1.4308,-1.4309,-1.4311,0,0,0,0,0,0,-1.4257,-1.4259,-1.4272,-1.4264,-1.4265,-1.4254,-1.426,-1.4257,-1.426,-1.425,-1.4247,-1.425,-1.4241,-1.4242,-1.4259,-1.4278,-1.424,-1.4241,-1.4306,-1.4308,-1.431,-1.4347,0,0,0,0,0,0,-1.4257,-1.4259,-1.427,-1.4264,-1.4266,-1.4289,-1.4261,-1.4258,-1.4262,-1.4258,-1.4253,-1.4251,-1.424,-1.4258,-1.426,-1.4278,-1.4241,-1.4304,-1.4307,-1.4309,-1.4345,-1.435,-1.4356,0,0,0,0,0,-1.4256,-1.4279,-1.4271,-1.4273,-1.4279,-1.429,-1.4291,-1.4278,-1.4263,-1.4274,-1.4268,-1.4252,-1.4275,-1.426,-1.4262,-1.4281,-1.4303,-1.4306,-1.4309,-1.4342,-1.4349,-1.4355,0,0,0,0,0,0,-1.4286,-1.4278,-1.4268,-1.4291,-1.4292,-1.4285,-1.4298,-1.4286,-1.429,-1.4287,-1.427,-1.4269,-1.429,-1.4287,-1.4271,-1.4309,-1.4286,-1.429,-1.4311,-1.4318,-1.4323,-1.4324,-1.4242,0,0,0,0,0,-1.4295,-1.4305,-1.4298,-1.4318,-1.432,-1.4309,-1.4313,-1.4304,-1.4304,-1.4303,-1.4298,-1.4299,-1.4306,-1.4311,-1.4318,-1.4344,-1.4343,-1.4357,-1.4363,-1.4368,-1.4371,-1.4387,-1.4394,-1.432,-1.432,-1.432,0,0,-1.4314,-1.4311,-1.4318,-1.4325,-1.4324,-1.4336,-1.4309,-1.4322,-1.433,-1.4305,-1.4322,-1.4319,-1.4318,-1.4341,-1.435,-1.4339,-1.4392,-1.4371,-1.4375,-1.4376,-1.4391,-1.4398,-1.4404,-1.4322,-1.4322,-1.4322,0,0,-1.4355,-1.4353,-1.4372,-1.4372,-1.4372,-1.4366,-1.437,-1.4366,-1.4363,-1.4381,-1.4363,-1.4373,-1.4385,-1.4387,-1.4389,-1.4433,-1.4419,-1.4435,-1.4464,-1.448,-1.4486,-1.4491,-1.4509,-1.4516,-1.4439,-1.4439,-1.4439,0,-1.4379,-1.4395,-1.4382,-1.4397,-1.4401,-1.438,-1.4399,-1.44,-1.4402,-1.4405,-1.4392,-1.441,-1.4408,-1.4432,-1.4443,-1.4445,-1.4451,-1.4436,-1.4487,-1.4492,-1.4496,-1.4513,-1.452,-1.4441,-1.4441,-1.4441,-1.444,0,-1.4426,-1.4438,-1.4452,-1.4457,-1.4462,-1.4479,-1.4469,-1.4476,-1.4466,-1.4461,-1.448,-1.4477,-1.4484,-1.4488,-1.4478,-1.4512,-1.4505,-1.4489,-1.4466,-1.4506,-1.4522,-1.4528,-1.4444,-1.4443,-1.4443,-1.4442,0,0,-1.4484,-1.4483,-1.4489,-1.4492,-1.4492,-1.4501,-1.4517,-1.4525,-1.4533,-1.4535,-1.4549,-1.4562,-1.4549,-1.4551,-1.4541,-1.4555,-1.4594,-1.4538,-1.4538,-1.455,-1.4633,-1.4646,-1.4654,-1.4584,-1.4585,-1.4586,-1.4634,0,-1.4526,-1.4554,-1.4544,-1.4574,-1.4586,-1.4568,-1.4582,-1.4584,-1.458,-1.459,-1.4585,-1.4596,-1.4576,-1.4578,-1.4591,-1.4586,-1.461,-1.4582,-1.4598,-1.4599,-1.4601,-1.4662,-1.4675,-1.472,-1.464,-1.4641,-1.4642,0,-1.4577,-1.4584,-1.4616,-1.4616,-1.4621,-1.4634,-1.4642,-1.4651,-1.4654,-1.465,-1.4654,-1.4642,-1.4659,-1.4636,-1.466,-1.4641,-1.4647,-1.4646,-1.4647,-1.4649,-1.4624,-1.4667,-1.4734,-1.4742,-1.4651,-1.465,-1.4649,0,-1.462,-1.4637,-1.4658,-1.4661,-1.4661,-1.4672,-1.4672,-1.4674,-1.468,-1.4686,-1.4691,-1.4699,-1.4703,-1.471,-1.4701,-1.4684,-1.4727,-1.4702,-1.4726,-1.4726,-1.4736,-1.4736,-1.4807,-1.4737,-1.4737,-1.4737,-1.4737,0,-1.4668,-1.4689,-1.4678,-1.4692,-1.4715,-1.4703,-1.4726,-1.4724,-1.4726,-1.4739,-1.4723,-1.4736,-1.4722,-1.4734,-1.4726,-1.4749,-1.475,-1.4749,-1.4747,-1.4751,-1.4752,-1.4756,-1.4753,-1.4739,-1.4738,-1.4738,-1.4738,0,-1.472,-1.4713,-1.4736,-1.4736,-1.4736,-1.4753,-1.4753,-1.4766,-1.4761,-1.4779,-1.4782,-1.4775,-1.4789,-1.478,-1.4792,-1.4788,-1.4818,-1.481,-1.4818,-1.4816,-1.4841,-1.484,-1.4919,-1.4929,-1.4851,-1.4852,-1.4852,0,-1.4752,-1.4767,-1.4769,-1.4778,-1.478,-1.4793,-1.48,-1.479,-1.4798,-1.4803,-1.4816,-1.4828,-1.4838,-1.486,-1.4856,-1.4866,-1.486,-1.4887,-1.4862,-1.4867,-1.4864,-1.4864,-1.4866,-1.4893,-1.4894,-1.4895,-1.4895,0,-1.481,-1.4807,-1.4818,-1.4829,-1.4838,-1.4846,-1.4852,-1.486,-1.485,-1.486,-1.4874,-1.4881,-1.4896,-1.4909,-1.4918,-1.4919,-1.4906,-1.4903,-1.491,-1.4915,-1.492,-1.492,-1.4834,-1.4902,-1.4901,-1.4901,-1.49,-1.49,-1.4854,-1.4868,-1.4873,-1.4887,-1.4891,-1.4898,-1.4911,-1.4909,-1.4921,-1.4933,-1.4926,-1.4943,-1.4947,-1.4959,-1.4961,-1.4975,-1.4964,-1.4973,-1.4975,-1.4978,-1.4983,-1.4916,-1.4977,-1.4976,-1.4976,-1.4976,-1.4976,0,-1.4913,-1.4916,-1.4929,-1.4939,-1.4951,-1.4938,-1.4945,-1.4956,-1.4972,-1.4977,-1.4987,-1.5005,-1.5018,-1.5017,-1.5029,-1.504,-1.5035,-1.5044,-1.5044,-1.5045,-1.4991,-1.4985,-1.5049,-1.5049,-1.5049,-1.5049,-1.5049,-1.5049,-1.4946,-1.497,-1.4968,-1.4995,-1.4997,-1.5015,-1.5021,-1.5027,-1.5032,-1.5053,-1.5065,-1.5064,-1.5067,-1.5079,-1.5091,-1.5091,-1.5097,-1.5109,-1.5106,-1.5055,-1.5048,-1.5041,-1.5036,-1.5109,-1.511,-1.5159,-1.516,-1.516]}]]